Location: Gradaro
(45.0833°N, 10.8833°E)
Time: 14:25:47
(UTC+00:00)

RESURS DK-1 - Pass Details

Date: 29 November 2020
Orbit: 557 x 560 km, 69.9° (Epoch: 25 January)

Event Time Altitude Azimuth Distance (km) Brightness Sun altitude
Exits shadow 04:27:14 - 198° (SSW) 1,966 5.0 -21.6°
Reaches altitude 10° 04:27:32 10° 198° (SSW) 1,843 4.9 -21.5°
Maximum altitude 04:31:38 71° 115° (ESE) 597 2.6 -20.8°
Drops below altitude 10° 04:35:46 10° 31° (NNE) 1,858 5.2 -20.1°
Sets 04:38:00 0° 30° (NNE) 2,759 6.1 -19.7°
